C/2018 L2 ( ATLAS )

Japanese version
Home page
Updated on November 19, 2018

---------------------------------------------------------------------

* Profile

Discovery Date June 6, 2018
Magnitude 15.6 mag
Discoverer Asteroid Terrestrial-impact Last Alert System (ATLAS) search program

* Pictures

* Orbital Elements

Epoch 2018 Nov. 18.0 TT = JDT 2458440.5
T 2018 Dec. 2.57465 TT                                  MPCW
q   1.7117555            (2000.0)            P               Q
z  +0.0040717      Peri.   56.22586     +0.03216118     +0.56732966
 +/-0.0000045      Node   243.01833     -0.89267773     +0.38660270
e   0.9930303      Incl.   67.42380     +0.44954659     +0.72710069
From 300 observations 2018 June 4-Oct. 12, mean residual 0".5.

* Finding Charts

* Magnitudes Graph

        m1 = 3.0 + 5 log d + 25.0 log r

---------------------------------------------------------------------

The orbital elements are published on M.P.E.C. 2018-U70.
The charts are made with StellaNavigator Ver.10 (AstroArts).
The magnitudes graphs are made with Comet for Windows.

---------------------------------------------------------------------

Copyright(C) Seiichi Yoshida (comet@aerith.net). All rights reserved.